Location: Grieser Field
(39.7333°N, 81.7975°W)
Time: 15:30:03
(UTC-05:00)

Daily predictions for brighter satellites

Satellite Brightness Start Highest point End
(mag) Time Altitude Azimuth Time Altitude Azimuth Time Altitude Azimuth
Cosmos 1725 Rocket 4.3 17:28:17 10° SSW 17:34:33 74° W 17:40:49 10° N
SL-27 R/B 2.9 17:32:19 10° N 17:35:25 34° ENE 17:38:31 10° SE
YAOGAN 1 3.6 17:32:22 10° ESE 17:35:54 25° ENE 17:39:27 10° NNE
COSMO-SKYMED 1 4.0 17:34:23 10° NE 17:37:28 19° E 17:40:32 10° SE
CZ-4C R/B 3.8 17:32:31 10° NNW 17:38:16 26° NE 17:44:32 10° E
SMAP 3.2 17:34:00 10° SSE 17:38:30 52° ENE 17:43:02 10° N
Meteor 1-28 Rocket 3.8 17:35:41 10° NNE 17:39:08 36° E 17:42:35 10° SSE
USA 161 3.5 17:37:39 10° NNW 17:39:18 20° WNW 17:41:03 10° SW
Meteor 1-26 Rocket 4.3 17:36:10 10° S 17:41:45 89° W 17:47:18 10° N
Cosmos 1503 Rocket 4.5 17:37:13 10° S 17:42:07 40° ESE 17:46:59 10° NE
Ariane Rocket 3.0 17:38:07 10° SSE 17:43:09 67° ENE 17:48:12 10° N
Tiangong 1 3.2 17:42:49 10° SSE 17:43:37 11° SE 17:44:26 10° SE
Cosmos 1606 3.2 17:42:09 10° SSE 17:45:39 37° E 17:49:10 10° NNE
Cosmos 841 Rocket 3.5 17:41:37 10° NNW 17:46:55 75° ENE 17:52:09 10° SSE
Cosmos 2346 Rocket 4.5 17:42:09 10° N 17:48:19 86° E 17:54:33 10° S
Landsat 4 4.3 17:48:35 10° NNE 17:52:07 36° E 17:55:39 10° SSE
CSL-04 Rocket 3.8 17:50:39 10° SSE 17:55:56 83° WSW 18:01:19 10° NNW
Cosmos 1703 Rocket 3.6 17:52:14 10° S 17:56:38 64° E 18:01:04 10° NNE
Cosmos 1484 Rocket 2.8 17:54:04 10° SSE 17:57:55 90° E 18:01:53 10° NNW
Cosmos 2221 Rocket 3.9 17:56:31 10° SSE 18:00:40 43° E 18:04:51 10° NNE
EO 1 Del DPAF 4.1 17:57:31 10° NE 18:00:51 28° E 18:04:11 10° SSE
Cosmos 1486 Rocket 4.4 17:57:45 10° SSW 18:02:55 65° WNW 18:08:09 10° NNE
Cosmos 2082 Rocket 2.3 17:59:19 10° NNW 18:04:55 55° ENE 18:10:26 10° SE
CENTAUR R/B 4.2 18:01:55 10° W 18:07:07 27° NW 18:12:55 10° NNE
OAO 3 Rocket 4.5 18:02:57 10° SW 18:07:15 31° SSE 18:10:56 13° ESE
ERS-2 2.6 18:03:52 10° SE 18:07:17 38° ENE 18:10:44 10° N
CZ-4 R/B 1.2 18:05:34 10° SSE 18:09:25 85° ENE 18:13:16 10° N
COSMOS 2455 4.4 18:05:15 10° WSW 18:10:32 31° NW 18:15:53 10° N
Meteor 2-6 Rocket 4.2 18:07:34 10° S 18:12:53 58° E 18:18:22 10° NNE
Meteor 1-20 Rocket 4.3 18:11:01 10° NNW 18:16:34 78° W 18:22:00 10° S
Cosmos 1602 4.2 18:13:08 10° N 18:16:42 35° ENE 18:20:14 10° SE
Okean 2 Rocket 3.3 18:13:07 10° N 18:17:29 46° E 18:21:49 10° SSE
Cosmos 1633 2.6 18:16:25 10° N 18:20:06 86° W 18:23:46 10° S
Cosmos 1354 Rocket 4.0 18:16:38 10° SSW 18:21:55 87° WNW 18:27:13 10° NNE
CZ-4 R/B 4.3 18:17:54 10° SSE 18:22:02 75° ENE 18:26:13 10° N
Cosmos 405 Rocket 2.8 18:18:40 10° S 18:22:20 51° E 18:25:14 15° NNE
Cosmos 1908 Rocket 4.4 18:18:22 10° NNW 18:22:36 53° W 18:26:47 10° S
SKYMED 2 3.5 18:21:25 10° NNE 18:25:45 64° ESE 18:30:01 10° S
Cosmos 1782 3.3 18:24:04 10° SSW 18:28:02 61° W 18:32:02 10° N
CZ-2C R/B 4.1 18:24:50 10° N 18:29:17 63° WNW 18:33:47 10° SSW
Cosmos 1464 Rocket 3.9 18:23:25 10° S 18:29:31 80° E 18:35:41 10° N
BREEZE-M R/B 2.8 18:27:48 10° WNW 18:30:36 68° SSW 18:35:27 10° SE
BREEZE-M DEB (TANK) 3.2 18:30:22 10° NW 18:32:13 30° NNE 18:32:13 30° NNE
SPOT 3 Rocket 3.6 18:27:25 10° SSE 18:32:31 58° ENE 18:37:38 10° N
Cosmos 44 Rocket 3.2 18:31:39 10° NNW 18:36:32 68° ENE 18:41:30 10° SE
FENGYUN 3A 3.7 18:32:39 10° SSE 18:37:55 56° ENE 18:43:12 10° N
Cosmos 292 Rocket 3.6 18:35:52 10° NNW 18:40:38 75° ENE 18:45:23 10° SSE
Okean 1-7 3.7 18:36:30 10° SSW 18:40:48 57° W 18:45:09 10° N
GPS 2-05 Rocket1 3.6 18:38:20 10° WSW 18:41:14 34° S 18:41:40 32° SSE
ISS -1.3 18:42:14 10° SSE 18:42:42 12° SSE 18:42:42 12° SSE
Meteor 1-5 Rocket 4.5 18:39:20 10° N 18:44:17 38° ENE 18:49:10 10° SE
Meteor 1-27 Rocket 3.7 18:42:30 10° S 18:48:23 76° E 18:54:20 10° NNE
Lacrosse 5 4.1 18:54:38 10° N 18:55:56 11° N 18:56:22 11° N
Cosmos 44 3.4 18:51:16 10° NW 18:56:00 72° WSW 19:00:57 10° SSE
Cosmos 1833 Rocket 3.4 18:50:52 10° NNW 18:56:20 54° WSW 19:01:47 10° S
Cosmos 2369 Rocket 3.2 18:54:04 10° SSE 18:57:34 28° SE 18:57:34 28° SE
NOAA 12 4.1 18:58:54 10° SSE 19:04:14 82° WSW 19:09:34 10° NNW
Thor Agena Rocket 3.8 19:04:53 47° ESE 19:04:53 47° ESE 19:09:22 10° S
Cosmos 405 4.0 19:05:08 10° NNW 19:08:36 47° W 19:12:02 10° S
ALOS 2.5 19:04:41 10° S 19:09:19 68° W 19:14:00 10° NNW
COSMO-SKYMED 1 4.0 19:09:44 10° N 19:13:43 36° WNW 19:17:41 10° SW
USA 234 3.1 19:14:25 42° NE 19:16:55 89° SSE 19:23:28 10° SW
Tiangong 1 3.9 19:15:27 10° WSW 19:15:53 14° WSW 19:15:53 14° WSW
Cosmos 968 Rocket 3.8 19:13:12 10° SSW 19:18:20 65° WNW 19:20:41 32° N
Cosmos 1943 Rocket 4.3 19:18:34 10° SSE 19:19:04 12° SSE 19:19:04 12° SSE
CZ-4C R/B 2.9 19:20:20 10° NW 19:27:39 86° WSW 19:32:49 25° SSE
Cosmos 1634 Rocket 3.9 19:36:37 10° S 19:42:05 72° S 19:42:05 72° S
USA 229 DEB 4.1 20:03:35 10° SW 20:10:13 57° NW 20:10:13 57° NW
USA 229 4.1 20:03:41 10° SW 20:10:16 57° NW 20:10:16 57° NW
Cosmos 2369 Rocket 4.5 20:37:44 10° SW 20:39:26 19° WSW 20:39:26 19° WSW
